CAS-2T (41845 NORAD) Tracking and Keplerian Element Data

This shows tracking and keplerian element data for the satellite.

Feedback or suggestion? Click here.




ElementValue
Catalog41845
NameCAS-2T
Epoch Orbit6649
Epoch Day46.77705974
Epoch Year2018
RAAN79.074
Inclination98.758
Eccentricity0.0318966
Argument of Perigee226.7919
Mean Anonmoly130.6228
Mean Motion14.48651507
Decay Rate1.402E-05
L11 41845U 16066E 18046.77705974 .00001402 00000-0 20433-3 0 9998
L22 41845 98.7580 79.0740 0318966 226.7919 130.6228 14.48651507 66495

Live tracking and technical data element details for CAS-2T (NORAD 41845). CAS-2T can be tracked NOW for your location showing map with azimuth and elevation plus other details from your city location.

Track the satellite on the map from your city or location and see movement details for azimuth, elevation, latitude, longitude, range, height, and movement on the map or in text.







IsCatalogInMostPopularTable: catalog: 41845, numindb: 114
Update: records affected: 1



GetName: 41845 CAS-2T

Hit Count: updated at: Wed, 14 Nov 2018 11:41:49 GMT